Skip Page Navigation
NASA JPL Caltech
NASA Logo - Jet Propulsion Laboratory + View the NASA Portal
+ Center for Near-Earth Object Studies
JPL Home Earth Solar System Stars & Galaxies Technology
JPL Solar System Dynamics
BODIES ORBITS EPHEMERIDES TOOLS PHYSICAL DATA DISCOVERY FAQ SITE MAP
JPL Small-Body Database Browser
Search: [ help ]  
233038 (2005 GE3)
Classification: Main-belt Asteroid          SPK-ID: 2233038
Ephemeris | Orbit Diagram | Orbital Elements | Mission Design | Physical Parameters | Discovery Circumstances | Close-Approach Data ]

[ show orbit diagram ]
Orbital Elements at Epoch 2459000.5 (2020-May-31.0) TDB
Reference: JPL 16 (heliocentric ecliptic J2000)
 Element Value Uncertainty (1-sigma)   Units 
e .1429328271853139 5.9054e-08  
a 2.76283936373804 2.2977e-08 au
q 2.367938922420088 1.6515e-07 au
i 16.54529884452976 5.3264e-06 deg
node 98.43232373957788 2.2903e-05 deg
peri 139.8987073830775 3.0255e-05 deg
M 66.14987904302635 1.7788e-05 deg
tp 2458692.281691269967
(2019-Jul-27.78169127)
8.3472e-05 TDB
period 1677.381618047107
4.59
2.0925e-05
5.729e-08
d
yr
n .2146202129120327 2.6773e-09 deg/d
Q 3.157739805055992 2.6261e-08 au
  Orbit Determination Parameters
   # obs. used (total)      448  
   data-arc span      5272 days (14.43 yr)  
   first obs. used      2005-03-12  
   last obs. used      2019-08-18  
   planetary ephem.      DE431  
   SB-pert. ephem.      SB431-N16  
   condition code      0  
   norm. resid. RMS      .57241  
   source      ORB  
   producer      Otto Matic  
   solution date      2020-Feb-25 07:15:22  

Additional Information
 Earth MOID = 1.37611 au 
 Jupiter MOID = 1.97799 au 
 T_jup = 3.266 
[ show covariance matrix ]

Ephemeris | Orbit Diagram | Orbital Elements | Mission Design | Physical Parameters | Discovery Circumstances | Close-Approach Data ]

Physical Parameter Table
Parameter Symbol Value Units Sigma Reference Notes
absolute magnitude H 15.5   n/a MPO433522  
diameter diameter 3.141 km 0.092 urn:nasa:pds:neowise_diameters_albedos::2.0[mainbelt] (http://adsabs.harvard.edu/abs/2011ApJ...741...68M)  
geometric albedo albedo 0.103   0.017 urn:nasa:pds:neowise_diameters_albedos::2.0[mainbelt] (http://adsabs.harvard.edu/abs/2011ApJ...741...68M)  

233038 (2005 GE3)          Discovered 2005-Apr-01 by CSS at Catalina
Reference: 20100228/Numbers.arcLast Updated: 2010-03-03

[ show close-approach data ]
Alternate Designations
 2005 GE3 = 2008 UU326 
Ephemeris | Orbit Diagram | Orbital Elements | Mission Design | Physical Parameters | Discovery Circumstances | Close-Approach Data ]
ABOUT SSD CREDITS/AWARDS PRIVACY/COPYRIGHT GLOSSARY LINKS
FirstGov 2020-Jul-05 01:47 UT
(server date/time)  
NASA Home Page
Site Manager:   Ryan S. Park
Webmaster  Alan B. Chamberlin